Probability
0 0 0 0 0 0 0 0 0 2 6 12 18 19 13 6 1 0 0 0 0 0 0 0 0 0 0 0 0 0 0 0 0 0 0 0 0 0 0 0 0 0 0 0
0 0 0 0 0 0 0 0 0 1 3 8 15 17 11 5 1 0 0 0 0 0 0 0 0 0 0 0 0 0 0 0 0 0 0 0 0 0 0 0 0 0 0 0
0 0 0 0 0 0 0 0 0 0 0 4 11 12 7 2 0 0 0 0 0 0 0 0 0 0 0 0 0 0 0 0 0 0 0 0 0 0 0 0 0 0 0 0
0 0 0 0 0 0 0 0 0 0 0 2 5 5 3 1 0 0 0 0 0 0 0 0 0 0 0 0 0 0 0 0 0 0 0 0 0 0 0 0 0 0 0 0
0 0 0 0 0 0 0 0 0 0 0 0 0 0 0 0 0 0 0 0 0 0 0 0 0 0 0 0 0 0 0 0 0 0 0 0 0 0 0 0 0 0 0 0
0 0 0 0 0 0 0 0 0 0 0 0 0 0 0 0 0 0 0 0 0 0 0 0 0 0 0 0 0 0 0 0 0 0 0 0 0 0 0 0 0 0 0 0
0 0 0 0 0 0 0 0 0 0 0 0 0 0 0 0 0 0 0 0 0 0 0 0 0 0 0 0 0 0 0 0 0 0 0 0 0 0 0 0 0 0 0 0
0 0 0 0 0 0 0 0 0 0 0 0 0 0 0 0 0 0 0 0 0 0 0 0 0 0 0 0 0 0 0 0 0 0 0 0 0 0 0 0 0 0 0 0
0 0 0 0 0 0 0 0 0 0 0 0 0 0 0 0 0 0 0 0 0 0 0 0 0 0 0 0 0 0 0 0 0 0 0 0 0 0 0 0 0 0 0 0
0 0 0 0 0 0 0 0 0 0 0 0 0 0 0 0 0 0 0 0 0 0 0 0 0 0 0 0 0 0 0 0 0 0 0 0 0 0 0 0 0 0 0 0
0 0 0 0 0 0 0 0 0 0 0 0 0 0 0 0 0 0 0 0 0 0 0 0 0 0 0 0 0 0 0 0 0 0 0 0 0 0 0 0 0 0 0 0
0 0 0 0 0 0 0 0 0 0 0 0 0 0 0 0 0 0 0 0 0 0 0 0 0 0 0 0 0 0 0 0 0 0 0 0 0 0 0 0 0 0 0 0
0 0 0 0 0 0 0 0 0 0 0 0 0 0 0 0 0 0 0 0 0 0 0 0 0 0 0 0 0 0 0 0 0 0 0 0 0 0 0 0 0 0 0 0
0 0 0 0 0 0 0 0 0 0 0 0 0 0 0 0 0 0 0 0 0 0 0 0 0 0 0 0 0 0 0 0 0 0 0 0 0 0 0 0 0 0 0 0
0 0 0 0 0 0 0 0 0 0 0 0 0 0 0 0 0 0 0 0 0 0 0 0 0 0 0 0 0 0 0 0 0 0 0 0 0 0 0 0 0 0 0 0
0 0 0 0 0 0 0 0 0 0 0 0 0 0 0 0 0 0 0 0 0 0 0 0 0 0 0 0 0 0 0 0 0 0 0 0 0 0 0 0 0 0 0 0
0 0 0 0 0 0 0 0 0 0 0 0 0 0 0 0 0 0 0 0 0 0 0 0 0 0 0 0 0 0 0 0 0 0 0 0 0 0 0 0 0 0 0 0
0 0 0 0 0 0 0 0 0 0 0 0 0 0 0 0 0 0 0 0 0 0 0 0 0 0 0 0 0 0 0 0 0 0 0 0 0 0 0 0 0 0 0 0
0 0 0 0 0 0 0 0 0 0 0 0 0 0 0 0 0 0 0 0 0 0 0 0 0 0 0 0 0 0 0 0 0 0 0 0 0 0 0 0 0 0 0 0
0 0 0 0 0 0 0 0 0 0 0 0 0 0 0 0 0 0 0 0 0 0 0 0 0 0 0 0 0 0 0 0 0 0 0 0 0 0 0 0 0 0 0 0
0 0 0 0 0 0 0 0 0 0 0 0 0 0 0 0 0 0 0 0 0 0 0 0 0 0 0 0 0 0 0 0 0 0 0 0 0 0 0 0 0 0 0 0
0 0 0 0 0 0 0 0 0 0 0 0 0 0 0 0 0 0 0 0 0 0 0 0 0 0 0 0 0 0 0 0 0 0 0 0 0 0 0 0 0 0 0 0
0 0 0 0 0 0 0 0 0 0 0 0 0 0 0 0 0 0 0 0 0 0 0 0 0 0 0 0 0 0 0 0 0 0 0 0 0 0 0 0 0 0 0 0
0 0 0 0 0 0 0 0 0 0 0 0 0 0 0 0 0 0 0 0 0 0 0 0 0 0 0 0 0 0 0 0 0 0 0 0 0 0 0 0 0 0 0 0
0 0 0 0 0 0 0 0 0 0 0 0 0 0 0 0 0 0 0 0 0 0 0 0 0 0 0 0 0 0 0 0 0 0 0 0 0 0 0 0 0 0 0 0
0 0 0 0 0 0 0 0 0 0 0 0 0 0 0 0 0 0 0 0 0 0 0 0 0 0 0 0 0 0 0 0 0 0 0 0 0 0 0 0 0 0 0 0
0 0 0 0 0 0 0 0 0 0 0 0 0 0 0 0 0 0 0 0 0 0 0 0 0 0 0 0 0 0 0 0 0 0 0 0 0 0 0 0 0 0 0 0
Wind_Speed
3 4 4 5 8 6 2 3 5 6 7 5 5 5 6 6 6 6 6 7 7 7 6 7 7 7 8 8 8 9 10 10 9 8 7 7 7 6 6 5 5 5 5 4
3 6 6 5 9 7 4 3 3 6 4 3 5 7 7 6 5 5 5 6 7 7 7 6 6 7 7 8 8 9 10 9 8 7 7 7 6 6 6 6 5 5 5 4
0 2 4 3 4 4 3 3 1 3 3 6 6 7 5 3 3 4 5 6 6 6 6 6 6 7 8 8 8 9 8 7 7 6 6 6 6 6 5 5 4 4 4 4
1 2 4 4 2 2 4 4 3 5 5 6 8 7 6 5 3 5 6 7 7 7 7 6 6 7 7 7 8 8 7 6 5 6 6 5 5 5 4 3 3 3 3 3
2 2 1 1 1 1 1 2 2 5 7 7 6 5 5 6 6 6 6 7 7 7 7 6 6 6 7 6 6 6 5 4 4 5 6 5 5 4 3 3 3 2 2 2
3 3 4 2 3 1 4 1 1 4 6 5 3 2 1 5 8 9 9 8 8 7 8 7 5 5 7 6 5 5 4 4 4 5 5 5 4 3 3 3 3 2 3 3
2 1 2 3 5 1 1 5 3 5 5 5 2 2 6 7 7 8 9 8 8 8 7 6 5 5 6 5 4 3 4 5 5 5 5 4 4 3 3 3 3 3 3 4
1 0 3 5 4 0 3 1 3 4 4 5 7 9 8 8 8 8 9 8 8 7 6 5 4 5 5 3 2 3 5 6 5 4 4 4 4 3 3 3 3 3 4 5
3 4 4 3 2 2 1 2 2 3 4 9 10 9 9 8 8 8 8 7 6 7 6 4 3 3 3 1 2 4 5 5 4 4 4 3 3 3 2 2 1 2 2 4
2 3 3 3 3 4 4 2 1 3 6 8 9 11 10 9 8 7 7 6 5 6 5 3 3 3 2 2 4 5 5 4 3 3 2 2 1 1 1 0 0 1 2 4
3 3 3 3 4 4 4 3 4 5 5 8 11 12 11 9 8 7 6 4 4 5 4 3 3 3 2 3 4 5 5 3 2 2 2 1 1 1 2 3 3 2 2 3
4 3 2 4 4 4 3 1 2 6 7 8 10 11 11 9 7 6 6 5 5 4 4 3 3 3 3 3 4 5 4 2 2 2 1 1 1 2 3 4 5 5 5 5
3 1 2 4 4 4 2 1 3 7 10 11 10 11 10 8 5 5 5 5 4 4 4 3 3 3 2 2 4 4 3 3 2 2 2 2 1 1 3 3 4 4 5 6
1 1 1 2 2 2 3 6 9 11 11 11 10 10 9 7 6 6 5 4 4 4 4 3 3 1 1 2 2 3 2 3 2 2 2 2 2 1 1 1 2 3 4 6
2 2 2 2 3 5 7 10 12 12 11 11 9 9 9 7 6 5 4 4 5 4 3 2 1 0 0 1 2 2 2 2 2 2 2 1 1 1 1 0 1 2 3 5
4 5 6 6 7 7 8 10 11 11 10 9 8 7 7 6 6 5 4 5 5 4 2 1 0 2 1 1 2 2 3 4 3 1 1 0 1 1 1 1 1 2 3 4
6 5 6 6 7 8 7 8 9 9 8 8 7 7 8 7 7 5 4 4 4 3 2 1 2 3 2 1 1 2 1 1 1 1 1 1 1 1 1 1 1 1 2 4
5 5 6 6 7 8 7 7 8 7 6 6 7 8 7 7 6 5 5 5 5 4 3 3 3 4 3 2 1 0 0 1 1 1 2 2 2 1 1 1 1 1 2 4
7 7 7 7 7 7 7 6 6 6 6 7 8 7 6 6 6 5 5 5 4 3 3 4 5 3 3 3 2 1 2 2 3 2 2 3 3 2 2 1 1 2 3 4
7 7 7 7 6 6 6 6 6 6 6 7 8 8 7 6 5 5 5 3 1 1 3 4 3 3 3 3 3 2 3 3 3 3 3 3 2 2 2 2 2 2 3 3
8 7 7 6 6 6 6 7 7 6 6 7 8 7 6 5 4 4 4 2 2 2 3 3 3 2 2 3 4 3 3 3 3 3 3 2 2 2 2 2 2 2 3 3
7 7 7 7 7 6 5 6 7 8 7 6 7 7 7 5 4 3 2 1 1 1 2 2 2 3 4 4 3 4 4 4 3 3 2 2 2 3 3 3 3 3 3 4
7 7 8 8 8 6 6 6 7 8 7 7 7 7 6 5 3 3 1 1 0 1 1 2 3 6 7 5 4 4 4 4 4 3 3 3 3 3 3 4 3 3 4 4
7 8 8 7 7 7 6 5 6 5 6 6 6 6 6 4 2 1 1 2 2 1 1 1 5 7 6 4 4 4 4 4 3 3 4 4 4 4 4 4 4 3 4 5
8 8 8 9 8 6 6 6 6 5 5 4 4 4 3 3 3 3 2 2 2 2 1 2 5 6 4 3 3 3 3 3 3 3 4 4 4 4 4 4 4 4 4 4
8 8 8 8 7 6 6 6 5 4 4 3 3 3 3 3 4 4 3 2 3 2 1 1 2 3 3 3 3 3 3 4 4 4 4 4 5 4 4 4 5 4 4 4
8 7 6 5 4 5 6 6 6 5 4 4 4 4 4 4 4 3 3 2 2 1 2 2 2 3 3 3 3 4 4 4 4 4 4 4 4 4 4 4 3 3 3 4
Wind_Direction
59 40 53 46 9 0 48 161 160 173 163 162 139 123 115 108 107 102 94 88 88 88 82 78 78 79 84 86 86 92 93 92 91 92 93 91 87 84 82 81 82 80 78 71
34 37 42 28 8 8 19 20 114 133 139 119 116 111 113 118 122 114 105 99 97 96 92 89 91 92 89 87 87 90 92 94 94 92 91 89 87 85 81 72 66 63 56 45
131 47 47 326 328 340 352 336 202 175 149 134 113 102 95 101 118 120 110 105 106 103 98 95 94 98 94 93 92 91 92 92 93 93 92 92 95 85 76 67 62 55 41 33
131 113 196 240 357 84 89 30 43 100 100 98 105 94 64 43 95 109 107 109 114 113 107 98 95 92 92 91 92 91 88 86 94 100 99 93 87 80 70 61 56 47 34 28
119 150 164 199 284 284 107 22 23 111 110 107 115 97 63 42 65 87 96 106 109 110 108 100 94 96 95 89 89 92 93 94 100 108 105 98 90 79 63 60 48 36 30 27
115 151 215 237 329 2 97 314 257 143 141 137 113 98 101 78 80 87 92 99 105 105 101 94 84 88 92 88 85 86 90 97 102 106 107 102 93 74 57 63 53 42 29 6
91 182 277 326 319 11 192 242 197 158 157 148 127 120 116 103 91 95 99 102 104 101 95 90 85 87 88 87 85 92 100 99 96 95 99 98 83 69 73 70 53 30 7 344
59 127 264 330 357 85 240 319 105 134 141 125 111 111 112 110 108 108 107 104 104 101 93 84 82 88 86 79 85 106 107 102 99 95 95 100 95 83 71 67 50 19 356 345
198 220 256 306 326 341 39 69 85 129 128 131 132 132 126 120 115 111 109 105 103 104 96 76 70 88 91 87 121 117 109 106 102 95 90 105 113 106 78 58 43 0 347 339
287 278 307 342 10 15 19 40 53 120 134 137 137 137 131 126 119 113 108 105 103 96 86 64 52 69 92 111 125 126 125 122 116 113 109 104 112 134 147 189 305 319 323 324
292 301 334 343 10 355 359 41 78 96 118 131 132 134 132 128 124 117 108 98 93 93 86 71 66 67 73 101 122 126 131 134 133 142 165 195 240 235 232 236 225 247 283 293
238 259 255 285 322 333 336 360 126 121 113 120 129 131 129 125 122 117 110 101 97 93 92 84 82 72 63 92 124 131 136 154 181 201 217 230 277 308 285 271 285 275 275 287
238 274 253 287 314 327 320 82 122 124 127 125 123 127 125 119 116 110 106 107 110 111 108 99 91 82 74 105 131 146 166 188 205 219 229 237 243 276 314 336 355 3 346 341
266 265 320 340 339 10 88 102 104 108 114 119 121 121 117 112 111 111 116 128 126 116 110 108 103 87 70 122 144 167 186 207 212 228 235 235 234 239 249 304 337 340 336 335
38 83 107 73 70 79 100 108 108 109 113 114 117 117 117 117 118 118 123 125 112 106 107 111 108 354 331 158 183 203 207 222 228 235 233 230 221 208 191 219 343 334 331 334
93 81 84 86 86 91 101 109 111 112 114 113 111 109 110 111 110 109 117 124 120 120 117 105 333 302 274 213 224 233 237 240 221 213 209 162 155 147 120 87 27 353 343 338
123 112 105 102 98 95 96 102 107 109 109 109 109 109 107 104 99 98 94 94 100 95 69 19 313 310 301 267 254 256 254 274 205 155 134 132 122 116 110 99 52 354 337 335
135 130 127 121 115 107 101 98 101 105 109 115 116 116 118 121 122 117 105 94 85 65 27 349 323 320 330 337 338 342 104 100 94 98 97 93 96 96 102 96 63 11 349 345
123 121 117 110 109 107 106 105 103 103 109 114 116 117 116 118 118 113 103 95 87 58 338 334 344 351 345 353 48 77 93 95 86 79 82 92 85 81 83 81 58 23 3 358
127 124 119 114 108 110 111 111 108 105 112 116 113 109 107 111 114 110 99 86 63 284 304 331 350 2 8 29 70 76 85 93 94 88 84 86 84 78 73 73 65 36 17 8
141 137 132 127 121 123 128 129 123 122 125 128 127 129 125 118 114 112 104 86 328 329 345 1 15 14 27 57 67 71 76 84 88 88 89 90 87 80 71 68 60 42 23 9
151 147 145 139 133 132 136 133 128 125 121 118 118 121 122 122 114 91 84 162 283 348 19 14 20 53 72 70 61 65 69 75 76 77 82 89 93 87 77 73 62 46 30 17
154 151 148 148 145 139 132 133 135 136 139 142 144 148 146 144 139 133 142 256 324 46 42 28 76 84 77 65 62 64 66 68 67 68 73 80 86 89 86 76 62 47 30 18
152 152 149 140 129 127 134 145 142 144 147 149 154 152 142 131 116 91 155 157 151 110 51 69 100 92 78 68 66 65 64 65 68 72 75 78 82 84 83 77 64 45 31 23
148 142 138 138 140 147 146 133 119 120 123 120 126 133 133 139 146 157 144 138 134 110 58 78 102 92 79 76 73 70 66 69 80 84 82 85 86 86 81 71 58 44 31 23
146 149 153 157 153 146 138 133 132 138 133 129 126 130 124 114 117 123 127 127 121 103 84 80 92 86 81 79 76 75 75 76 75 76 85 90 92 90 82 72 60 46 35 25
135 133 129 125 129 139 141 143 144 155 161 156 155 152 143 135 131 135 131 118 104 78 80 89 89 90 89 84 78 76 78 81 83 84 87 89 90 88 84 77 63 50 39 32